Regional Weather Roundup
Issued by NWS Sioux Falls, SD

Home | Current Version | Previous Version | Graphics & Text | Print | Product List | Glossary Off
Versions: 1 2 3 4 5 6 7 8 9 10 11 12 13 14 15 16 17 18 19 20 21 22 23 24 25 26 27 28 29 30 31 32 33 34 35 36 37 38 39 40 41 42 43 44 45 46 47 48 49 50

000
ASUS43 KFSD 031602
RWRFSD

WEATHER ROUNDUP FOR SE SOUTH DAKOTA/SW MINNESOTA/NW IOWA
NATIONAL WEATHER SERVICE SIOUX FALLS SD
1000 AM CST SAT DEC 03 2016

NOTE: "FAIR" INDICATES FEW OR NO CLOUDS BELOW 12,000 FEET WITH NO
SIGNIFICANT WEATHER AND OR OBSTRUCTIONS TO VISIBILITY.


SDZ038>040-050-052>070-031700-
SOUTHEAST SOUTH DAKOTA

CITY           SKY/WX    TMP DP  RH WIND       PRES   REMARKS
CHAMBERLAIN    CLOUDY    32  32 100 E6        30.08F WCI  26
HURON          CLOUDY    29  27  92 S13       30.13S WCI  19
MADISON        FAIR      28  28 100 S13       30.15F WCI  18
MITCHELL       CLOUDY    30  28  92 S10       30.15S WCI  21
SIOUX FALLS    PTSUNNY   31  28  89 S12       30.19S WCI  22
WINNER         CLOUDY    37  29  72 S13       30.05F
YANKTON        MOSUNNY   28  27  93 SE5       30.20R WCI  23
$$

MNZ071-072-080-081-089-090-097-098-031700-
SOUTHWEST MINNESOTA

CITY           SKY/WX    TMP DP  RH WIND       PRES   REMARKS
FAIRMONT       PTSUNNY   30  22  72 E6        30.27F WCI  24
JACKSON        SUNNY     30  23  74 SE7       30.25S WCI  23
LUVERNE        SUNNY     32  28  86 S8        30.22R WCI  25
MARSHALL       SUNNY     29  22  75 SE14      30.23S WCI  18
MONTEVIDEO     CLOUDY    28  23  80 S9        30.25S WCI  20
PIPESTONE      SUNNY     30  27  86 S10       30.18S WCI  21
REDWOOD FALLS  CLOUDY    29  19  66 SE5       30.27R WCI  24
TRACY          SUNNY     30  24  78 SE9       30.23S WCI  21
WINDOM         SUNNY     30  23  74 CALM      30.24S
WORTHINGTON    SUNNY     30  27  88 SE10      30.22F WCI  21
$$

IAZ001>003-012>014-020>022-031-032-NEZ013-014-SDZ071-031700-
NORTHWEST IOWA

CITY           SKY/WX    TMP DP  RH WIND       PRES   REMARKS
CHEROKEE       MOSUNNY   34  31  88 S9        30.26R WCI  26
DENISON        CLOUDY    34  30  86 S6        30.25S WCI  29
ESTHERVILLE    SUNNY     30  25  81 E7        30.25F WCI  23
LE MARS        PTSUNNY   34  28  80 S12       30.25F WCI  25
ORANGE CITY    CLOUDY    32  30  93 S5        30.23S WCI  27
SHELDON        PTSUNNY   32  32 100 S9        30.22R WCI  24
SIOUX CITY     MOSUNNY   31  28  89 SE9       30.25F WCI  23
SPENCER        SUNNY     34  29  82 S8        30.25S WCI  27
STORM LAKE     SUNNY     34  28  80 S13       30.25S WCI  25
$$

ABBREVIATIONS USED IN REMARKS
   TC - TEMPERATURE IN CELSIUS
  WCI - WIND CHILL INDEX
   HX - HEAT INDEX
  VSB - VISIBILITY





USA.gov is the U.S. government's official web portal to all federal, state and local government web resources and services.